Location: Unspecified
(0.0000°N, 0.0000°E)
Time: 09:45:57
(UTC+00:00)

APRIZESAT 2 (LATINSAT D) - Pass Details

Date: 15 June 2023
Orbit: 691 x 845 km, 98.1° (Epoch: 28 September)

Event Time Altitude Azimuth Distance (km) Brightness Sun altitude
Rises 19:22:47 0° 21° (NNE) 3,386 ? -18.8°
Reaches altitude 10° 19:25:13 10° 26° (NNE) 2,447 ? -19.4°
Maximum altitude 19:30:30 52° 102° (ESE) 1,022 ? -20.6°
Enters shadow 19:32:53 30° 162° (SSE) 1,426 ? -21.1°
